| time (UTC) | temp F | wind direction | speed knots | gust knots | rain 1hr in | rain 24hr in | rain mn in | humidity % | barometer mb |
| 20260509120704 | 47 | 171 | 4.3 | 7.0 | 0.00 | 0.00 | 0.00 | 61 | 1011.2 |
| 20260509120204 | 46 | 170 | 2.6 | 7.0 | 0.00 | 0.00 | 0.00 | 62 | 1011.2 |
| 20260509114704 | 45 | 165 | 2.6 | 7.8 | 0.00 | 0.00 | 0.00 | 63 | 1011.2 |
| 20260509114204 | 45 | 155 | 3.5 | 6.1 | 0.00 | 0.00 | 0.00 | 64 | 1011.2 |
| 20260509112704 | 43 | 167 | 1.7 | 2.6 | 0.00 | 0.00 | 0.00 | 68 | 1011.1 |
| 20260509112203 | 43 | 167 | 3.5 | 5.2 | 0.00 | 0.00 | 0.00 | 67 | 1011.2 |
| 20260509110704 | 42 | 168 | 2.6 | 4.3 | 0.00 | 0.00 | 0.00 | 70 | 1011.1 |
| 20260509110204 | 41 | 167 | 1.7 | 2.6 | 0.00 | 0.00 | 0.00 | 70 | 1011.1 |
| 20260509104704 | 41 | 167 | 1.7 | 2.6 | 0.00 | 0.00 | 0.00 | 72 | 1010.9 |
| 20260509104204 | 40 | 167 | 1.7 | 2.6 | 0.00 | 0.00 | 0.00 | 73 | 1010.9 |
| 20260509102204 | 39 | 167 | 0.9 | 2.6 | 0.00 | 0.00 | 0.00 | 76 | 1010.6 |
| 20260509100704 | 38 | 167 | 1.7 | 2.6 | 0.00 | 0.00 | 0.00 | 77 | 1010.6 |
| 20260509100204 | 38 | 167 | 0.9 | 2.6 | 0.00 | 0.00 | 0.00 | 77 | 1010.4 |
| 20260509094704 | 37 | 167 | 0.9 | 2.6 | 0.00 | 0.00 | 0.00 | 78 | 1010.2 |
| 20260509094204 | 37 | 167 | 0.9 | 2.6 | 0.00 | 0.00 | 0.00 | 78 | 1010.1 |
| 20260509092704 | 38 | 167 | 0.9 | 1.7 | 0.00 | 0.00 | 0.00 | 77 | 1010.1 |
| 20260509092204 | 38 | 167 | 0.9 | 1.7 | 0.00 | 0.00 | 0.00 | 77 | 1010.1 |
| 20260509090704 | 39 | 167 | 0.9 | 1.7 | 0.00 | 0.00 | 0.00 | 75 | 1010.2 |
| 20260509090204 | 39 | 167 | 0.9 | 2.6 | 0.00 | 0.00 | 0.00 | 74 | 1010.2 |
| 20260509084704 | 40 | 167 | 0.9 | 2.6 | 0.00 | 0.00 | 0.00 | 74 | 1010.2 |
| 20260509084204 | 40 | 167 | 0.9 | 2.6 | 0.00 | 0.00 | 0.00 | 74 | 1010.2 |
| 20260509082704 | 41 | 167 | 1.7 | 2.6 | 0.00 | 0.00 | 0.00 | 73 | 1010.3 |
| 20260509082204 | 41 | 167 | 0.9 | 2.6 | 0.00 | 0.00 | 0.00 | 73 | 1010.3 |
| 20260509080704 | 41 | 167 | 1.7 | 2.6 | 0.00 | 0.00 | 0.00 | 72 | 1010.3 |
| 20260509080204 | 41 | 167 | 1.7 | 2.6 | 0.00 | 0.00 | 0.00 | 72 | 1010.3 |
| 20260509074205 | 42 | 168 | 1.7 | 2.6 | 0.00 | 0.00 | 0.00 | 72 | 1010.2 |
| 20260509072705 | 42 | 165 | 1.7 | 2.6 | 0.00 | 0.00 | 0.00 | 71 | 1010.2 |
| 20260509072205 | 41 | 167 | 1.7 | 4.3 | 0.00 | 0.00 | 0.00 | 72 | 1010.2 |
| 20260509070705 | 41 | 167 | 2.6 | 4.3 | 0.00 | 0.00 | 0.00 | 74 | 1010.1 |
| 20260509070205 | 41 | 170 | 1.7 | 4.3 | 0.00 | 0.00 | 0.00 | 74 | 1010.0 |
| 20260509064705 | 40 | 170 | 1.7 | 2.6 | 0.00 | 0.00 | 0.00 | 75 | 1010.0 |
| 20260509064205 | 40 | 170 | 1.7 | 2.6 | 0.00 | 0.00 | 0.00 | 76 | 1010.0 |
| 20260509062705 | 39 | 171 | 0.9 | 1.7 | 0.00 | 0.00 | 0.00 | 78 | 1009.9 |
| 20260509062205 | 39 | 171 | 0.9 | 2.6 | 0.00 | 0.00 | 0.00 | 77 | 1010.0 |
| 20260509060705 | 39 | 171 | 0.9 | 1.7 | 0.00 | 0.00 | 0.00 | 78 | 1010.0 |
| 20260509060205 | 39 | 171 | 0.9 | 1.7 | 0.00 | 0.00 | 0.00 | 77 | 1010.0 |
| 20260509054705 | 40 | 171 | 0.9 | 1.7 | 0.00 | 0.00 | 0.00 | 77 | 1010.1 |
| 20260509054205 | 40 | 171 | 0.9 | 1.7 | 0.00 | 0.00 | 0.00 | 77 | 1010.1 |
| 20260509052705 | 40 | 171 | 0.9 | 1.7 | 0.00 | 0.00 | 0.00 | 76 | 1010.1 |
| 20260509052205 | 40 | 171 | 0.9 | 1.7 | 0.00 | 0.00 | 0.00 | 76 | 1010.1 |
| 20260509050705 | 41 | 171 | 0.9 | 1.7 | 0.00 | 0.00 | 0.00 | 75 | 1010.1 |
| 20260509050205 | 41 | 171 | 0.9 | 2.6 | 0.00 | 0.00 | 0.00 | 75 | 1010.1 |
| 20260509044705 | 41 | 171 | 0.9 | 2.6 | 0.00 | 0.00 | 0.00 | 75 | 1010.0 |
| 20260509044204 | 41 | 171 | 0.9 | 2.6 | 0.00 | 0.00 | 0.00 | 75 | 1010.1 |
| 20260509042704 | 40 | 171 | 0.9 | 2.6 | 0.00 | 0.00 | 0.00 | 76 | 1010.0 |
| 20260509042205 | 40 | 171 | 1.7 | 2.6 | 0.00 | 0.00 | 0.00 | 76 | 1010.0 |
| 20260509040704 | 40 | 171 | 0.9 | 1.7 | 0.00 | 0.00 | 0.00 | 77 | 1009.9 |
| 20260509040204 | 40 | 171 | 0.9 | 1.7 | 0.00 | 0.00 | 0.00 | 77 | 1009.8 |
| 20260509034705 | 40 | 171 | 0.9 | 0.9 | 0.00 | 0.00 | 0.00 | 75 | 1009.7 |
| 20260509034205 | 41 | 171 | 0.9 | 2.6 | 0.00 | 0.00 | 0.00 | 74 | 1009.7 |
| 20260509032705 | 41 | 171 | 1.7 | 2.6 | 0.00 | 0.00 | 0.00 | 73 | 1009.7 |
| 20260509032205 | 42 | 171 | 0.9 | 2.6 | 0.00 | 0.00 | 0.00 | 72 | 1009.6 |
| 20260509030708 | 42 | 171 | 0.9 | 2.6 | 0.00 | 0.00 | 0.00 | 71 | 1009.6 |
| 20260509030205 | 43 | 171 | 1.7 | 2.6 | 0.00 | 0.00 | 0.00 | 71 | 1009.6 |
| 20260509024705 | 43 | 171 | 1.7 | 2.6 | 0.00 | 0.00 | 0.00 | 69 | 1009.6 |
| 20260509024205 | 44 | 171 | 1.7 | 5.2 | 0.00 | 0.00 | 0.00 | 69 | 1009.6 |
| 20260509022705 | 44 | 173 | 1.7 | 2.6 | 0.00 | 0.00 | 0.00 | 68 | 1009.5 |
| 20260509022205 | 44 | 173 | 1.7 | 4.3 | 0.00 | 0.00 | 0.00 | 68 | 1009.6 |
| 20260509020704 | 45 | 175 | 2.6 | 5.2 | 0.00 | 0.00 | 0.00 | 67 | 1009.5 |
| 20260509020204 | 45 | 176 | 1.7 | 2.6 | 0.00 | 0.00 | 0.00 | 68 | 1009.5 |
| 20260509014704 | 45 | 175 | 1.7 | 4.3 | 0.00 | 0.00 | 0.00 | 68 | 1009.4 |
| 20260509014205 | 45 | 180 | 1.7 | 4.3 | 0.00 | 0.00 | 0.00 | 68 | 1009.3 |
| 20260509012704 | 45 | 180 | 0.9 | 2.6 | 0.00 | 0.00 | 0.00 | 68 | 1009.2 |
| 20260509012205 | 45 | 180 | 0.9 | 2.6 | 0.00 | 0.00 | 0.00 | 67 | 1009.2 |
| 20260509010705 | 46 | 180 | 1.7 | 2.6 | 0.00 | 0.00 | 0.00 | 66 | 1009.0 |
| 20260509010205 | 46 | 180 | 1.7 | 4.3 | 0.00 | 0.00 | 0.00 | 65 | 1009.0 |
| 20260509004704 | 46 | 186 | 1.7 | 2.6 | 0.00 | 0.00 | 0.00 | 64 | 1008.8 |
| 20260509004204 | 47 | 186 | 1.7 | 2.6 | 0.00 | 0.00 | 0.00 | 63 | 1008.7 |
| 20260509002705 | 47 | 186 | 1.7 | 2.6 | 0.00 | 0.00 | 0.00 | 63 | 1008.5 |
| 20260509002205 | 47 | 187 | 1.7 | 5.2 | 0.00 | 0.00 | 0.00 | 63 | 1008.5 |
| 20260509000704 | 48 | 192 | 1.7 | 2.6 | 0.00 | 0.00 | 0.00 | 62 | 1008.3 |
| 20260509000204 | 48 | 193 | 1.7 | 2.6 | 0.00 | 0.00 | 0.00 | 61 | 1008.2 |
| 20260508234705 | 48 | 194 | 0.9 | 2.6 | 0.00 | 0.00 | 0.00 | 59 | 1008.2 |
| 20260508234205 | 48 | 194 | 0.9 | 4.3 | 0.00 | 0.00 | 0.00 | 59 | 1008.2 |
| 20260508232705 | 49 | 219 | 2.6 | 5.2 | 0.00 | 0.00 | 0.00 | 58 | 1008.1 |
| 20260508232204 | 49 | 219 | 3.5 | 8.7 | 0.00 | 0.00 | 0.00 | 59 | 1008.1 |
| 20260508230704 | 50 | 169 | 2.6 | 10.4 | 0.00 | 0.00 | 0.00 | 57 | 1008.2 |
| 20260508230204 | 50 | 198 | 2.6 | 7.8 | 0.00 | 0.00 | 0.00 | 56 | 1008.2 |
| 20260508224705 | 50 | 190 | 3.5 | 7.0 | 0.00 | 0.00 | 0.00 | 55 | 1008.1 |
| 20260508224204 | 50 | 284 | 2.6 | 7.8 | 0.00 | 0.00 | 0.00 | 53 | 1008.0 |
| 20260508222705 | 51 | 243 | 4.3 | 7.0 | 0.00 | 0.00 | 0.00 | 52 | 1008.0 |
| 20260508222205 | 51 | 270 | 2.6 | 7.8 | 0.00 | 0.00 | 0.00 | 53 | 1007.9 |
| 20260508220704 | 52 | 202 | 3.5 | 7.0 | 0.00 | 0.00 | 0.00 | 53 | 1007.9 |
| 20260508220204 | 52 | 202 | 2.6 | 7.0 | 0.00 | 0.00 | 0.00 | 52 | 1007.9 |
| 20260508214704 | 51 | 244 | 2.6 | 5.2 | 0.00 | 0.00 | 0.00 | 50 | 1007.7 |
| 20260508214205 | 51 | 219 | 2.6 | 7.0 | 0.00 | 0.00 | 0.00 | 51 | 1007.7 |
| 20260508212705 | 51 | 309 | 3.5 | 6.1 | 0.00 | 0.00 | 0.00 | 50 | 1007.7 |
| 20260508212205 | 51 | 221 | 2.6 | 6.1 | 0.00 | 0.00 | 0.00 | 50 | 1007.6 |
| 20260508210704 | 51 | 253 | 2.6 | 5.2 | 0.00 | 0.00 | 0.00 | 50 | 1007.6 |
| 20260508210204 | 51 | 275 | 3.5 | 7.8 | 0.00 | 0.00 | 0.00 | 50 | 1007.7 |
| 20260508204704 | 52 | 280 | 4.3 | 10.4 | 0.00 | 0.00 | 0.00 | 49 | 1007.5 |
| 20260508204205 | 52 | 289 | 4.3 | 11.3 | 0.00 | 0.00 | 0.00 | 50 | 1007.4 |
| 20260508202704 | 52 | 265 | 3.5 | 7.0 | 0.00 | 0.00 | 0.00 | 51 | 1007.3 |
| 20260508202204 | 51 | 218 | 3.5 | 7.0 | 0.00 | 0.00 | 0.00 | 52 | 1007.3 |
| 20260508200704 | 51 | 261 | 2.6 | 4.3 | 0.00 | 0.00 | 0.00 | 52 | 1007.3 |
| 20260508200205 | 51 | 185 | 4.3 | 6.1 | 0.00 | 0.00 | 0.00 | 52 | 1007.4 |
| 20260508194705 | 51 | 291 | 4.3 | 8.7 | 0.00 | 0.00 | 0.00 | 53 | 1007.5 |
| 20260508194205 | 51 | 249 | 3.5 | 13.0 | 0.00 | 0.00 | 0.00 | 55 | 1007.5 |
| 20260508192704 | 50 | 229 | 3.5 | 6.1 | 0.00 | 0.00 | 0.00 | 52 | 1007.5 |
| 20260508192204 | 50 | 252 | 5.2 | 12.2 | 0.00 | 0.00 | 0.00 | 51 | 1007.5 |
| 20260508190704 | 50 | 282 | 3.5 | 6.1 | 0.00 | 0.00 | 0.00 | 53 | 1007.5 |
| 20260508190204 | 50 | 289 | 4.3 | 10.4 | 0.00 | 0.00 | 0.00 | 53 | 1007.5 |
| 20260508184705 | 49 | 303 | 5.2 | 10.4 | 0.00 | 0.00 | 0.00 | 52 | 1007.6 |
| 20260508184204 | 49 | 286 | 5.2 | 13.0 | 0.00 | 0.00 | 0.00 | 52 | 1007.6 |
| 20260508182704 | 50 | 218 | 5.2 | 10.4 | 0.00 | 0.00 | 0.00 | 52 | 1007.5 |
| 20260508182204 | 50 | 277 | 5.2 | 11.3 | 0.00 | 0.00 | 0.00 | 52 | 1007.5 |
| 20260508180704 | 50 | 286 | 5.2 | 12.2 | 0.00 | 0.00 | 0.00 | 54 | 1007.5 |
| 20260508180204 | 49 | 248 | 3.5 | 8.7 | 0.00 | 0.00 | 0.00 | 56 | 1007.5 |
| 20260508174704 | 49 | 278 | 3.5 | 7.0 | 0.00 | 0.00 | 0.00 | 58 | 1007.5 |
| 20260508174205 | 49 | 232 | 2.6 | 12.2 | 0.00 | 0.00 | 0.00 | 57 | 1007.5 |
| 20260508172704 | 49 | 252 | 3.5 | 7.0 | 0.00 | 0.00 | 0.00 | 56 | 1007.5 |
| 20260508172204 | 49 | 297 | 4.3 | 7.8 | 0.00 | 0.00 | 0.00 | 57 | 1007.5 |
| 20260508170704 | 50 | 196 | 3.5 | 7.0 | 0.00 | 0.00 | 0.00 | 57 | 1007.5 |
| 20260508170205 | 50 | 192 | 2.6 | 7.8 | 0.00 | 0.00 | 0.00 | 57 | 1007.5 |
| 20260508164704 | 50 | 283 | 2.6 | 6.1 | 0.00 | 0.00 | 0.00 | 55 | 1007.5 |
| 20260508164204 | 50 | 288 | 3.5 | 7.8 | 0.00 | 0.00 | 0.00 | 56 | 1007.5 |
| 20260508162704 | 49 | 261 | 4.3 | 7.8 | 0.00 | 0.00 | 0.00 | 58 | 1007.6 |
| 20260508162206 | 49 | 246 | 4.3 | 11.3 | 0.00 | 0.00 | 0.00 | 59 | 1007.6 |
| 20260508160705 | 49 | 258 | 3.5 | 7.8 | 0.00 | 0.00 | 0.00 | 59 | 1007.7 |
| 20260508160204 | 49 | 271 | 3.5 | 7.8 | 0.00 | 0.00 | 0.00 | 59 | 1007.7 |
| 20260508154704 | 49 | 304 | 3.5 | 7.0 | 0.00 | 0.00 | 0.00 | 60 | 1007.8 |
| 20260508154205 | 49 | 271 | 4.3 | 7.0 | 0.00 | 0.00 | 0.00 | 59 | 1007.9 |
| 20260508152704 | 49 | 228 | 2.6 | 5.2 | 0.00 | 0.00 | 0.00 | 63 | 1007.8 |
| 20260508152204 | 48 | 276 | 3.5 | 7.0 | 0.00 | 0.00 | 0.00 | 61 | 1007.9 |
| 20260508150705 | 48 | 263 | 2.6 | 7.8 | 0.00 | 0.00 | 0.00 | 64 | 1008.0 |
| 20260508150204 | 48 | 311 | 2.6 | 7.0 | 0.00 | 0.00 | 0.00 | 65 | 1008.0 |
| 20260508144704 | 47 | 268 | 4.3 | 6.1 | 0.00 | 0.00 | 0.00 | 64 | 1008.0 |
| 20260508144204 | 47 | 304 | 3.5 | 7.8 | 0.00 | 0.00 | 0.00 | 66 | 1008.1 |
| 20260508142704 | 46 | 251 | 2.6 | 5.2 | 0.00 | 0.00 | 0.00 | 65 | 1008.1 |
| 20260508142204 | 46 | 275 | 1.7 | 4.3 | 0.00 | 0.00 | 0.00 | 67 | 1008.0 |
| 20260508140706 | 46 | 295 | 2.6 | 4.3 | 0.00 | 0.00 | 0.00 | 69 | 1008.1 |
| 20260508140204 | 46 | 261 | 2.6 | 5.2 | 0.00 | 0.00 | 0.00 | 69 | 1008.0 |
| 20260508134704 | 45 | 295 | 1.7 | 5.2 | 0.00 | 0.00 | 0.00 | 69 | 1008.0 |
| 20260508134204 | 45 | 272 | 2.6 | 7.0 | 0.00 | 0.00 | 0.00 | 70 | 1008.1 |
| 20260508132704 | 45 | 278 | 2.6 | 4.3 | 0.00 | 0.00 | 0.00 | 70 | 1008.1 |
| 20260508132204 | 45 | 269 | 2.6 | 4.3 | 0.00 | 0.00 | 0.00 | 71 | 1008.1 |
| 20260508130704 | 45 | 276 | 2.6 | 2.6 | 0.00 | 0.00 | 0.00 | 73 | 1008.0 |
| 20260508130205 | 44 | 266 | 1.7 | 4.3 | 0.00 | 0.00 | 0.00 | 74 | 1008.0 |
| 20260508124704 | 44 | 250 | 1.7 | 2.6 | 0.00 | 0.00 | 0.00 | 75 | 1008.0 |
| 20260508124204 | 44 | 279 | 1.7 | 2.6 | 0.00 | 0.00 | 0.00 | 75 | 1008.0 |
| 20260508122704 | 43 | 282 | 2.6 | 2.6 | 0.00 | 0.00 | 0.00 | 75 | 1008.0 |
| 20260508122204 | 43 | 261 | 1.7 | 4.3 | 0.00 | 0.00 | 0.00 | 75 | 1007.9 |